Hourly Weather Klecewko

Today, 25 July, Sunday

Time Temperature Precipitation Wind Pressure Humidity
00:00 +19°C° 0 mm 2 mps 755 mmHg 73%
01:00 +19°C° 0 mm 2 mps 755 mmHg 73%
02:00 +19°C° 0 mm 2 mps 755 mmHg 73%
03:00 +19°C° 0 mm 2 mps 755 mmHg 73%
04:00 +19°C° 0 mm 2 mps 755 mmHg 73%
05:00 +19°C° 0 mm 2 mps 755 mmHg 71%
06:00 +20°C° 0 mm 3 mps 755 mmHg 70%
07:00 +21°C° 0 mm 3 mps 755 mmHg 66%
08:00 +22°C° 0 mm 3 mps 755 mmHg 62%
09:00 +25°C° 0 mm 4 mps 755 mmHg 58%
10:00 +26°C° 0 mm 4 mps 755 mmHg 54%
11:00 +28°C° 0 mm 5 mps 755 mmHg 49%
12:00 +29°C° 0 mm 5 mps 754 mmHg 44%
13:00 +32°C° 0 mm 5 mps 754 mmHg 39%
14:00 +30°C° 0 mm 4 mps 754 mmHg 41%
15:00 +30°C° 0 mm 4 mps 754 mmHg 43%
16:00 +29°C° 0 mm 3 mps 754 mmHg 45%
17:00 +28°C° 0 mm 3 mps 754 mmHg 51%
18:00 +26°C° 0 mm 3 mps 754 mmHg 58%
19:00 +25°C° 0 mm 3 mps 754 mmHg 64%
20:00 +24°C° 0 mm 3 mps 754 mmHg 66%
21:00 +22°C° 0 mm 3 mps 754 mmHg 69%
22:00 +21°C° 0 mm 3 mps 754 mmHg 72%
23:00 +21°C° 0 mm 3 mps 754 mmHg 71%

Tomorrow, 26 July, Monday

Time Temperature Precipitation Wind Pressure Humidity
00:00 +20°C° 0 mm 3 mps 754 mmHg 71%
01:00 +20°C° 0 mm 3 mps 754 mmHg 71%
02:00 +20°C° 0 mm 3 mps 754 mmHg 73%
03:00 +19°C° 0 mm 3 mps 754 mmHg 74%
04:00 +19°C° 0 mm 3 mps 754 mmHg 76%
05:00 +20°C° 0 mm 3 mps 754 mmHg 74%
06:00 +20°C° 0 mm 4 mps 754 mmHg 72%
07:00 +21°C° 0 mm 4 mps 754 mmHg 70%
08:00 +22°C° 0 mm 4 mps 754 mmHg 66%
09:00 +23°C° 0 mm 4 mps 754 mmHg 62%
10:00 +25°C° 0 mm 5 mps 754 mmHg 59%
11:00 +27°C° 0.1 mm 4 mps 754 mmHg 56%
12:00 +28°C° 0.1 mm 4 mps 753 mmHg 53%
13:00 +29°C° 0.1 mm 4 mps 753 mmHg 50%
14:00 +29°C° 0 mm 4 mps 753 mmHg 51%
15:00 +29°C° 0 mm 4 mps 753 mmHg 53%
16:00 +28°C° 0 mm 5 mps 753 mmHg 55%
17:00 +26°C° 0.5 mm 4 mps 752 mmHg 65%
18:00 +23°C° 0.5 mm 4 mps 752 mmHg 76%
19:00 +22°C° 0.5 mm 4 mps 752 mmHg 86%
20:00 +21°C° 0.3 mm 4 mps 752 mmHg 89%
21:00 +21°C° 0.3 mm 4 mps 752 mmHg 92%
22:00 +20°C° 0.3 mm 4 mps 752 mmHg 94%
23:00 +20°C° 0.2 mm 3 mps 752 mmHg 95%

Day after tomorrow, 27 July, Tuesday

Time Temperature Precipitation Wind Pressure Humidity
00:00 +19°C° 0.2 mm 3 mps 752 mmHg 96%
01:00 +19°C° 0.2 mm 2 mps 752 mmHg 97%
02:00 +18°C° 0 mm 2 mps 752 mmHg 97%
03:00 +18°C° 0 mm 2 mps 752 mmHg 97%
04:00 +19°C° 0 mm 1 mps 752 mmHg 97%
05:00 +20°C° 0 mm 1 mps 752 mmHg 94%
06:00 +22°C° 0 mm 1 mps 752 mmHg 90%
07:00 +23°C° 0 mm 1 mps 752 mmHg 87%
08:00 +24°C° 0 mm 2 mps 752 mmHg 79%
09:00 +26°C° 0 mm 2 mps 752 mmHg 71%
10:00 +28°C° 0 mm 2 mps 752 mmHg 64%
11:00 +28°C° 0.3 mm 3 mps 752 mmHg 60%
12:00 +29°C° 0.3 mm 3 mps 752 mmHg 57%
13:00 +29°C° 0.3 mm 4 mps 752 mmHg 54%
14:00 +28°C° 0.6 mm 4 mps 752 mmHg 59%
15:00 +27°C° 0.6 mm 4 mps 752 mmHg 64%
16:00 +26°C° 0.6 mm 4 mps 752 mmHg 70%
17:00 +25°C° 1.1 mm 3 mps 753 mmHg 75%
18:00 +23°C° 1.1 mm 2 mps 753 mmHg 81%
19:00 +21°C° 1.1 mm 2 mps 753 mmHg 87%
20:00 +21°C° 0.1 mm 1 mps 753 mmHg 87%
21:00 +20°C° 0.1 mm 1 mps 753 mmHg 88%
22:00 +20°C° 0.1 mm 1 mps 753 mmHg 88%
23:00 +19°C° 0 mm 1 mps 753 mmHg 88%

28 July, Wednesday

Time Temperature Precipitation Wind Pressure Humidity
00:00 +19°C° 0 mm 1 mps 753 mmHg 87%
01:00 +19°C° 0 mm 1 mps 753 mmHg 87%
02:00 +19°C° 0 mm 1 mps 753 mmHg 88%
03:00 +18°C° 0 mm 2 mps 753 mmHg 89%
04:00 +18°C° 0 mm 2 mps 753 mmHg 90%
05:00 +19°C° 0 mm 2 mps 753 mmHg 85%
06:00 +21°C° 0 mm 2 mps 753 mmHg 79%
07:00 +22°C° 0 mm 3 mps 753 mmHg 74%
08:00 +25°C° 0 mm 3 mps 753 mmHg 65%
09:00 +27°C° 0 mm 4 mps 753 mmHg 55%
10:00 +29°C° 0 mm 4 mps 753 mmHg 45%
11:00 +29°C° 0 mm 4 mps 753 mmHg 45%
12:00 +29°C° 0 mm 4 mps 753 mmHg 44%
13:00 +29°C° 0 mm 4 mps 752 mmHg 43%
14:00 +29°C° 0 mm 4 mps 752 mmHg 44%
15:00 +28°C° 0 mm 3 mps 752 mmHg 46%
16:00 +28°C° 0 mm 3 mps 752 mmHg 47%
17:00 +27°C° 0 mm 3 mps 752 mmHg 51%
18:00 +26°C° 0 mm 3 mps 752 mmHg 56%
19:00 +25°C° 0 mm 3 mps 753 mmHg 60%
20:00 +24°C° 0 mm 3 mps 753 mmHg 65%
21:00 +22°C° 0 mm 3 mps 753 mmHg 69%
22:00 +21°C° 0 mm 3 mps 754 mmHg 74%
23:00 +20°C° 0 mm 3 mps 754 mmHg 77%

29 July, Thursday

Time Temperature Precipitation Wind Pressure Humidity
00:00 +19°C° 0 mm 3 mps 754 mmHg 81%
01:00 +18°C° 0 mm 2 mps 754 mmHg 85%
02:00 +17°C° 0 mm 2 mps 754 mmHg 86%
03:00 +17°C° 0 mm 2 mps 754 mmHg 88%
04:00 +16°C° 0 mm 2 mps 754 mmHg 89%
05:00 +18°C° 0 mm 2 mps 754 mmHg 83%
06:00 +19°C° 0 mm 2 mps 755 mmHg 76%
07:00 +21°C° 0 mm 2 mps 755 mmHg 69%
08:00 +23°C° 0 mm 2 mps 755 mmHg 62%
09:00 +25°C° 0 mm 3 mps 755 mmHg 56%
10:00 +26°C° 0 mm 3 mps 755 mmHg 49%
11:00 +27°C° 0 mm 3 mps 754 mmHg 46%
12:00 +28°C° 0 mm 3 mps 754 mmHg 42%
13:00 +29°C° 0 mm 3 mps 754 mmHg 38%
14:00 +28°C° 0 mm 3 mps 754 mmHg 42%
15:00 +28°C° 0 mm 3 mps 753 mmHg 45%
16:00 +27°C° 0 mm 2 mps 753 mmHg 49%
17:00 +26°C° 0 mm 2 mps 753 mmHg 53%
18:00 +25°C° 0 mm 2 mps 753 mmHg 56%
19:00 +24°C° 0 mm 1 mps 753 mmHg 60%
20:00 +23°C° 0 mm 1 mps 753 mmHg 61%
21:00 +23°C° 0 mm 2 mps 753 mmHg 62%
22:00 +21°C° 0 mm 2 mps 753 mmHg 63%
23:00 +21°C° 0 mm 2 mps 752 mmHg 61%

30 July, Friday

Time Temperature Precipitation Wind Pressure Humidity
00:00 +21°C° 0 mm 2 mps 752 mmHg 60%
01:00 +23°C° 0 mm 2 mps 752 mmHg 59%
02:00 +21°C° 0 mm 2 mps 752 mmHg 62%
03:00 +21°C° 0 mm 2 mps 752 mmHg 65%
04:00 +20°C° 0 mm 2 mps 752 mmHg 68%
05:00 +21°C° 0 mm 3 mps 751 mmHg 65%
06:00 +22°C° 0 mm 3 mps 751 mmHg 63%
07:00 +24°C° 0 mm 3 mps 751 mmHg 61%
08:00 +25°C° 0 mm 4 mps 751 mmHg 59%
09:00 +26°C° 0 mm 4 mps 750 mmHg 57%
10:00 +26°C° 0 mm 4 mps 750 mmHg 54%
11:00 +27°C° 0.1 mm 5 mps 750 mmHg 52%
12:00 +28°C° 0.1 mm 5 mps 749 mmHg 50%
13:00 +30°C° 0.1 mm 6 mps 749 mmHg 48%
14:00 +28°C° 0.2 mm 5 mps 749 mmHg 56%
15:00 +27°C° 0.2 mm 5 mps 748 mmHg 64%
16:00 +25°C° 0.2 mm 5 mps 748 mmHg 73%
17:00 +23°C° 1.2 mm 4 mps 749 mmHg 77%
18:00 +22°C° 1.2 mm 3 mps 749 mmHg 81%
19:00 +21°C° 1.2 mm 2 mps 749 mmHg 85%
20:00 +20°C° 0 mm 2 mps 749 mmHg 87%
21:00 +19°C° 0 mm 2 mps 750 mmHg 88%
22:00 +19°C° 0 mm 1 mps 750 mmHg 89%
23:00 +19°C° 0.1 mm 1 mps 750 mmHg 89%
Show more